DW2182 Weather Reports


time (UTC)temp
C
wind
direction
speed
KPH
gust
KPH
rain 1hr
cm
rain 24hr
cm
rain mn
cm
humidity
%
barometer
mb
20260510230516 17 135 8.0 16.1 0.00 0.00 0.00 27 1019.5
20260510225516 17 135 11.3 22.5 0.00 0.00 0.00 26 1019.4
20260510224516 17 135 9.7 24.1 0.00 0.00 0.00 27 1019.4
20260510223516 17 0 6.4 17.7 0.00 0.00 0.00 28 1019.3
20260510222516 18 158 12.9 24.1 0.00 0.00 0.00 26 1019.4
20260510221536 18 135 8.0 16.1 0.00 0.00 0.00 26 1019.4
20260510220538 18 135 9.7 20.9 0.00 0.00 0.00 26 1019.4
20260510215516 18 0 11.3 22.5 0.00 0.00 0.00 27 1019.3
20260510214516 18 135 9.7 17.7 0.00 0.00 0.00 27 1019.4
20260510213516 18 135 12.9 25.7 0.00 0.00 0.00 26 1019.4
20260510212556 18 135 8.0 16.1 0.00 0.00 0.00 27 1019.4
20260510211536 18 135 11.3 22.5 0.00 0.00 0.00 27 1019.4
20260510210516 18 158 9.7 25.7 0.00 0.00 0.00 30 1019.3
20260510205516 18 135 12.9 30.6 0.00 0.00 0.00 29 1019.5
20260510204536 18 0 9.7 25.7 0.00 0.00 0.00 29 1019.4
20260510203515 18 135 9.7 22.5 0.00 0.00 0.00 29 1019.5
20260510202516 20 158 12.9 24.1 0.00 0.00 0.00 28 1019.6
20260510201516 19 135 11.3 19.3 0.00 0.00 0.00 30 1019.5
20260510200516 19 135 8.0 20.9 0.00 0.00 0.00 28 1019.6
20260510195516 19 135 8.0 24.1 0.00 0.00 0.00 27 1019.5
20260510194516 18 135 8.0 17.7 0.00 0.00 0.00 31 1019.4
20260510193515 18 23 8.0 19.3 0.00 0.00 0.00 29 1019.3
20260510192516 19 0 9.7 29.0 0.00 0.00 0.00 28 1019.5
20260510191515 19 135 8.0 20.9 0.00 0.00 0.00 31 1019.3
20260510190515 20 158 8.0 19.3 0.00 0.00 0.00 28 1019.3
20260510185515 18 0 8.0 19.3 0.00 0.00 0.00 29 1019.4
20260510184516 19 23 9.7 30.6 0.00 0.00 0.00 32 1019.3
20260510183515 19 135 9.7 19.3 0.00 0.00 0.00 29 1019.5
20260510182516 18 135 9.7 16.1 0.00 0.00 0.00 30 1019.4
20260510181516 19 0 9.7 24.1 0.00 0.00 0.00 30 1019.5
20260510180516 19 135 12.9 24.1 0.00 0.00 0.00 28 1019.5
20260510175515 18 135 8.0 14.5 0.00 0.00 0.00 30 1019.4
20260510174515 18 135 11.3 27.4 0.00 0.00 0.00 30 1019.3
20260510173516 18 135 8.0 16.1 0.00 0.00 0.00 30 1019.5
20260510172515 18 0 9.7 19.3 0.00 0.00 0.00 32 1019.4
20260510171515 18 0 8.0 19.3 0.00 0.00 0.00 31 1019.6
20260510170517 18 135 4.8 14.5 0.00 0.00 0.00 32 1019.3
20260510165517 17 135 4.8 14.5 0.00 0.00 0.00 32 1019.5
20260510164517 17 23 11.3 22.5 0.00 0.00 0.00 32 1019.5
20260510163517 17 135 8.0 14.5 0.00 0.00 0.00 33 1019.6
20260510162517 17 158 11.3 22.5 0.00 0.00 0.00 33 1019.7
20260510161537 16 135 8.0 14.5 0.00 0.00 0.00 35 1019.4
20260510160517 16 0 9.7 24.1 0.00 0.00 0.00 35 1019.3
20260510155517 16 158 11.3 20.9 0.00 0.00 0.00 34 1019.4
20260510154517 15 135 9.7 27.4 0.00 0.00 0.00 35 1019.3
20260510153517 15 135 8.0 14.5 0.00 0.00 0.00 35 1019.4
20260510152517 15 135 9.7 25.7 0.00 0.00 0.00 37 1019.3
20260510151517 14 135 9.7 19.3 0.00 0.00 0.00 37 1019.3
20260510150517 13 135 9.7 17.7 0.00 0.00 0.00 39 1019.3
20260510145517 13 135 8.0 16.1 0.00 0.00 0.00 39 1019.3
20260510144517 13 0 8.0 17.7 0.00 0.00 0.00 39 1019.3
20260510143517 13 0 11.3 20.9 0.00 0.00 0.00 40 1019.3
20260510142517 13 0 8.0 16.1 0.00 0.00 0.00 41 1019.4
20260510141517 14 0 8.0 16.1 0.00 0.00 0.00 41 1019.4
20260510140517 13 135 4.8 11.3 0.00 0.00 0.00 41 1019.3
20260510135517 13 135 4.8 8.0 0.00 0.00 0.00 42 1019.2
20260510134517 13 113 4.8 17.7 0.00 0.00 0.00 43 1019.1
20260510133517 12 113 4.8 11.3 0.00 0.00 0.00 45 1019.0
20260510132557 11 113 3.2 12.9 0.00 0.00 0.00 47 1019.0
20260510131517 10 113 4.8 6.4 0.00 0.00 0.00 49 1018.9
20260510130518 10 135 4.8 9.7 0.00 0.00 0.00 52 1018.9
20260510125538 8 135 3.2 6.4 0.00 0.00 0.00 55 1018.9
20260510124517 7 0.0 3.2 0.00 0.00 0.00 57 1018.8
20260510123517 7 68 1.6 4.8 0.00 0.00 0.00 58 1018.6
20260510122537 6 0.0 0.0 0.00 0.00 0.00 60 1018.6
20260510121517 5 0.0 3.2 0.00 0.00 0.00 61 1018.5
20260510120518 5 0.0 0.0 0.00 0.00 0.00 62 1018.3
20260510115519 5 0.0 0.0 0.00 0.00 0.00 62 1018.2
20260510114517 5 0.0 0.0 0.00 0.00 0.00 62 1018.2
20260510113517 5 0.0 0.0 0.00 0.00 0.00 61 1018.2
20260510112518 5 0.0 0.0 0.00 0.00 0.00 60 1018.1
20260510111517 5 0.0 0.0 0.00 0.00 0.00 60 1018.2
20260510110537 5 0.0 0.0 0.00 0.00 0.00 59 1018.1
20260510105517 5 0.0 0.0 0.00 0.00 0.00 59 1018.2
20260510104538 5 0.0 0.0 0.00 0.00 0.00 59 1018.1
20260510103518 5 0.0 0.0 0.00 0.00 0.00 60 1018.1
20260510102517 4 0.0 0.0 0.00 0.00 0.00 61 1017.9
20260510101557 4 135 1.6 6.4 0.00 0.00 0.00 63 1018.0
20260510100517 3 135 3.2 4.8 0.00 0.00 0.00 64 1017.8
20260510095517 3 135 1.6 4.8 0.00 0.00 0.00 64 1017.7
20260510094517 3 0.0 0.0 0.00 0.00 0.00 65 1017.6
20260510093517 3 0.0 0.0 0.00 0.00 0.00 65 1017.5
20260510092557 3 0.0 0.0 0.00 0.00 0.00 64 1017.4
20260510091517 3 0.0 0.0 0.00 0.00 0.00 65 1017.2
20260510090517 4 0.0 0.0 0.00 0.00 0.00 65 1017.0
20260510085517 4 0.0 0.0 0.00 0.00 0.00 63 1017.1
20260510084519 4 0.0 0.0 0.00 0.00 0.00 63 1016.8
20260510083557 4 0.0 0.0 0.00 0.00 0.00 64 1016.7
20260510082517 4 0.0 0.0 0.00 0.00 0.00 63 1016.8
20260510081537 4 0.0 0.0 0.00 0.00 0.00 62 1016.5
20260510080537 5 0.0 0.0 0.00 0.00 0.00 63 1016.5
20260510075537 5 0.0 0.0 0.00 0.00 0.00 62 1016.4
20260510074517 5 0.0 0.0 0.00 0.00 0.00 61 1016.5
20260510073517 5 0.0 0.0 0.00 0.00 0.00 61 1016.5
20260510072517 5 0.0 0.0 0.00 0.00 0.00 61 1016.3
20260510071517 5 0.0 0.0 0.00 0.00 0.00 61 1016.4
20260510070517 5 0.0 0.0 0.00 0.00 0.00 60 1016.4
20260510065517 5 0.0 0.0 0.00 0.00 0.00 59 1016.3
20260510064537 6 0.0 0.0 0.00 0.00 0.00 59 1016.4
20260510063516 6 0.0 0.0 0.00 0.00 0.00 56 1016.4
20260510062516 6 0.0 0.0 0.00 0.00 0.00 55 1016.3
20260510061517 6 0.0 0.0 0.00 0.00 0.00 55 1016.3
20260510060517 6 0.0 0.0 0.00 0.00 0.00 53 1016.3
20260510055517 7 0.0 0.0 0.00 0.00 0.00 51 1016.3
20260510054517 7 0.0 0.0 0.00 0.00 0.00 50 1016.2
20260510053517 7 0.0 0.0 0.00 0.00 0.00 49 1016.4
20260510052517 7 0.0 0.0 0.00 0.00 0.00 48 1016.3
20260510051517 8 0.0 0.0 0.00 0.00 0.00 47 1016.0
20260510050637 8 0.0 0.0 0.00 0.00 0.00 45 1015.9
20260510045537 8 0.0 0.0 0.00 0.00 0.00 44 1015.8
20260510044537 8 0.0 0.0 0.00 0.00 0.00 44 1015.7
20260510043516 9 0.0 0.0 0.00 0.00 0.00 43 1015.7
20260510042517 10 0.0 0.0 0.00 0.00 0.00 43 1015.6
20260510041517 10 0.0 0.0 0.00 0.00 0.00 42 1015.6
20260510040537 10 0.0 0.0 0.00 0.00 0.00 41 1015.5
20260510035537 10 0.0 0.0 0.00 0.00 0.00 40 1015.4
20260510034517 10 0.0 0.0 0.00 0.00 0.00 39 1015.2
20260510033517 11 0.0 0.0 0.00 0.00 0.00 39 1015.2
20260510032519 11 0.0 0.0 0.00 0.00 0.00 38 1015.2
20260510031517 11 0.0 0.0 0.00 0.00 0.00 38 1015.1
20260510030517 11 0.0 1.6 0.00 0.00 0.00 37 1015.1
20260510025517 12 158 1.6 4.8 0.00 0.00 0.00 36 1014.8
20260510024537 12 158 1.6 4.8 0.00 0.00 0.00 36 1014.6
20260510023537 12 158 3.2 6.4 0.00 0.00 0.00 35 1014.4
20260510022517 12 158 1.6 8.0 0.00 0.00 0.00 35 1014.2
20260510021517 12 158 3.2 8.0 0.00 0.00 0.00 35 1013.9
20260510020517 13 0 4.8 9.7 0.00 0.00 0.00 34 1013.8
20260510015517 13 135 4.8 8.0 0.00 0.00 0.00 33 1013.6
20260510014516 13 135 4.8 11.3 0.00 0.00 0.00 32 1013.3
20260510013517 13 0 4.8 12.9 0.00 0.00 0.00 31 1013.1
20260510012537 14 158 6.4 12.9 0.00 0.00 0.00 30 1013.0
20260510011517 14 135 8.0 17.7 0.00 0.00 0.00 30 1012.8
20260510010537 15 135 8.0 16.1 0.00 0.00 0.00 29 1012.6
20260510005517 15 135 8.0 16.1 0.00 0.00 0.00 28 1012.5
20260510004517 15 135 8.0 19.3 0.00 0.00 0.00 28 1012.3
20260510003516 15 158 6.4 16.1 0.00 0.00 0.00 28 1012.2
20260510002516 15 158 6.4 14.5 0.00 0.00 0.00 27 1012.1
20260510001517 15 158 9.7 19.3 0.00 0.00 0.00 25 1011.9
20260510000517 15 135 9.7 24.1 0.00 0.00 0.00 25 1011.8
20260509235517 16 135 9.7 24.1 0.00 0.00 0.00 25 1011.8
20260509234517 16 158 12.9 22.5 0.00 0.00 0.00 26 1011.7
20260509233517 16 158 11.3 25.7 0.00 0.00 0.00 26 1011.7
20260509232517 16 158 12.9 29.0 0.00 0.00 0.00 25 1011.5
20260509231516 16 135 11.3 19.3 0.00 0.00 0.00 25 1011.3